Wind_Speed
54 53 52 51 51 51 49 45 42 40 40 40 40 38 36 33 30 27 24 22 20 18 16 15 13 12 10 10 8 7 6 5 5 4 4 5 6 7 7 7 7 7 8 8 9 9 10 11 11
55 55 54 54 54 52 49 46 43 42 42 42 41 39 37 35 31 28 26 23 21 19 17 16 14 13 11 10 9 8 6 6 5 5 5 5 6 7 7 8 8 8 9 9 9 10 11 11 12
55 56 56 56 56 53 49 46 44 44 44 43 42 41 39 36 34 30 27 25 22 20 18 17 15 13 12 11 9 8 7 6 5 5 5 6 7 7 8 8 9 9 10 10 10 11 12 12 13
55 57 58 58 57 53 49 47 46 46 46 45 44 42 40 38 35 32 29 26 23 21 19 17 15 14 12 11 10 9 7 7 6 6 6 7 8 8 9 10 10 10 11 11 11 12 12 13 14
56 56 58 59 57 53 50 48 48 48 47 46 45 43 41 39 37 34 31 28 25 23 21 19 17 15 13 12 10 9 8 8 7 7 7 8 9 9 10 11 11 12 12 12 12 13 13 14 15
55 57 59 59 56 53 51 50 50 50 49 48 46 44 42 40 38 36 33 30 27 25 22 21 18 16 14 13 11 10 9 9 8 8 9 9 10 11 12 12 12 12 13 13 13 14 14 15 16
55 57 57 57 56 54 52 51 51 51 50 49 48 45 43 41 39 37 34 31 29 26 23 21 20 17 16 14 12 12 11 11 10 10 10 11 12 12 13 13 13 14 14 14 14 15 16 16 17
54 55 57 57 56 54 52 52 52 52 52 51 49 46 44 42 40 38 35 33 30 27 25 23 21 19 17 16 14 13 13 12 12 12 12 13 13 14 14 14 15 15 15 16 16 16 17 18 18
53 55 55 55 55 53 53 53 53 53 53 53 51 48 45 44 42 39 37 34 32 29 27 24 22 21 19 18 16 15 14 14 14 14 14 15 15 15 15 16 16 16 17 17 18 18 19 19 20
54 54 52 51 52 53 54 56 56 55 55 54 53 50 47 45 43 40 38 36 34 31 29 26 25 23 22 20 19 17 16 16 16 16 16 16 16 17 17 17 18 18 18 19 19 20 20 21 22
53 51 48 49 51 53 55 57 59 58 56 55 54 51 48 46 44 41 39 37 36 34 32 29 27 25 24 22 21 20 19 18 17 17 17 18 18 18 18 18 19 19 20 20 21 21 22 22 23
51 49 48 49 50 53 54 57 59 60 58 56 55 53 50 48 45 42 40 39 38 36 34 31 29 28 26 25 24 22 21 20 20 19 19 19 19 19 20 20 20 21 21 22 22 23 24 24 24
50 49 49 49 49 52 54 56 58 59 58 58 57 54 51 49 47 44 43 41 40 38 36 34 32 30 29 28 26 25 24 23 22 22 22 21 21 21 21 21 22 22 22 23 24 24 25 25 26
49 49 49 49 49 51 53 55 57 56 58 58 57 55 52 50 49 47 45 43 41 39 38 36 34 33 32 30 29 28 27 26 25 24 24 23 23 23 23 23 23 24 24 24 25 26 26 27 28
49 50 50 49 49 49 51 54 55 54 56 57 57 56 54 51 49 48 47 45 43 42 40 38 37 36 34 33 32 31 30 29 28 27 26 26 26 25 25 25 25 26 26 26 27 28 28 29 30
49 50 50 49 49 49 51 51 51 53 55 56 56 56 56 54 51 49 48 47 45 44 42 40 39 38 37 36 35 34 32 31 30 30 29 28 28 28 27 27 27 28 28 28 29 30 30 31 32
49 50 49 48 48 48 49 48 49 52 54 55 55 56 55 55 52 50 48 47 47 45 44 43 41 40 39 39 37 36 35 34 33 32 31 31 31 30 30 29 30 30 30 30 31 32 32 33 34
46 47 47 46 47 47 47 46 47 50 52 53 54 54 55 55 54 51 50 49 47 47 46 45 44 42 42 41 39 38 37 36 35 35 34 33 33 32 32 31 32 32 32 33 33 34 34 35 36
43 44 45 44 44 45 45 45 46 48 50 52 52 53 53 53 53 53 51 50 49 48 47 47 46 44 43 42 41 40 40 39 38 37 36 36 35 34 34 33 34 34 34 35 35 36 36 37 38
41 42 43 43 43 44 44 45 46 47 48 50 50 50 51 52 52 52 52 51 50 50 49 48 47 46 46 45 44 43 42 41 40 39 38 37 37 37 36 36 36 36 36 37 37 38 38 39 40
39 40 41 42 42 43 43 43 44 46 46 47 48 48 48 49 50 50 50 50 50 50 50 50 49 48 47 47 46 45 44 43 42 41 39 39 39 39 38 38 38 38 38 39 39 40 40 40 41
36 37 38 40 41 42 42 42 42 44 45 44 44 46 46 46 47 48 49 49 49 49 50 49 49 49 49 48 47 46 45 44 42 42 41 41 40 40 40 40 40 41 41 41 41 42 42 42 42
35 35 35 37 39 40 41 41 40 42 43 42 41 43 44 45 45 46 48 48 49 49 49 49 49 49 49 48 48 47 46 45 44 43 42 42 42 42 42 42 42 42 42 42 42 43 43 44 44
34 33 33 34 36 39 38 39 38 38 38 39 39 41 43 43 44 45 45 47 48 49 49 49 49 49 49 49 49 48 47 46 45 44 43 43 43 43 43 43 43 43 43 43 43 44 44 44 45
33 33 32 33 34 36 35 36 34 33 35 38 39 40 42 44 44 45 45 45 46 48 49 49 49 49 49 49 49 49 48 47 46 45 45 45 44 44 43 44 44 44 44 44 44 44 45 45 45
31 32 32 31 32 32 33 34 30 31 33 35 38 40 41 43 44 45 45 46 47 47 49 49 49 49 49 48 48 47 47 47 46 46 45 45 45 45 45 45 45 45 45 44 44 45 45 45 44
31 32 30 29 29 30 32 31 29 28 30 32 35 37 39 41 43 44 45 46 47 48 48 49 49 49 49 49 48 48 47 47 47 46 46 46 46 46 46 46 46 46 45 45 44 45 44 44 43
30 29 29 28 28 28 29 28 27 26 27 29 32 35 37 38 40 42 44 46 47 47 48 48 48 49 49 49 49 49 49 48 48 48 48 48 47 47 46 46 45 44 44 44 44 44 43 42 42
29 28 27 27 28 28 27 26 25 25 26 28 30 33 35 36 38 40 42 44 46 47 47 48 48 49 49 49 49 49 49 49 49 48 48 48 47 47 46 45 44 44 44 43 43 42 42 41 41
28 28 26 26 27 27 27 24 23 24 25 26 28 30 32 34 36 38 39 41 43 45 46 47 47 48 48 48 48 48 49 49 49 48 48 47 47 45 44 43 43 43 43 42 41 41 41 41 41
Wind_Direction
222 221 220 218 217 217 216 215 214 214 213 216 219 221 223 224 225 225 224 224 225 225 227 230 233 236 240 242 243 246 250 256 263 275 292 305 313 317 319 322 323 324 326 327 326 325 326 328 328
222 221 220 219 218 217 216 215 214 214 215 217 220 222 224 225 225 225 225 225 226 226 227 231 234 237 240 243 245 248 252 256 265 278 293 304 310 313 315 316 318 319 321 322 321 321 323 326 326
222 222 221 220 218 217 215 215 215 215 216 217 220 222 224 225 226 226 226 225 226 226 227 229 232 236 238 241 244 248 250 254 264 278 291 301 307 310 312 314 316 317 318 318 319 320 322 324 324
222 223 222 221 218 216 216 215 216 216 217 218 219 221 223 225 226 226 226 226 225 225 225 228 230 233 237 239 243 247 250 256 266 279 290 298 304 308 311 312 315 316 316 316 318 319 320 321 321
222 223 223 221 218 216 215 216 217 217 218 218 219 221 223 225 226 227 227 228 226 224 225 227 228 231 235 239 243 247 253 259 268 280 289 294 300 305 308 311 314 316 316 316 317 318 318 318 318
222 223 223 221 218 216 216 216 217 218 219 219 220 221 222 225 226 228 228 229 228 226 225 227 228 229 233 239 243 249 256 263 271 280 286 292 298 302 306 310 313 314 315 315 316 318 317 316 315
222 223 223 221 219 217 216 216 217 218 219 220 220 220 221 224 226 228 229 229 229 228 227 228 228 230 233 237 243 249 256 263 270 278 284 289 295 299 303 307 311 312 313 314 315 315 314 313 312
222 223 223 220 218 216 215 217 217 218 219 221 220 220 220 222 224 227 229 229 229 228 227 228 230 232 235 238 242 247 254 262 269 276 281 285 291 295 300 304 308 310 311 313 313 312 312 312 311
221 222 222 220 218 216 215 217 217 219 220 221 221 220 220 222 223 225 227 228 228 228 228 230 232 235 238 240 243 247 252 259 266 272 277 282 287 292 296 301 304 307 309 311 311 310 310 310 310
220 222 221 220 219 216 216 217 216 218 219 221 222 221 221 222 223 224 225 226 228 228 229 230 233 237 240 242 245 249 253 257 263 269 274 279 283 287 292 296 300 303 305 307 308 308 308 308 308
220 221 219 219 219 216 216 216 216 217 219 221 222 222 221 222 223 224 225 226 227 228 229 230 233 237 241 244 247 251 254 258 262 266 271 275 279 283 288 292 295 298 301 303 305 305 305 305 305
220 219 218 218 219 217 216 216 216 218 219 221 223 223 222 223 223 224 225 226 228 229 230 231 233 237 241 245 249 252 256 259 263 266 269 272 276 281 285 290 293 296 298 300 302 302 303 303 303
218 218 218 218 218 217 217 217 217 218 219 221 223 224 223 223 223 224 225 226 227 228 230 232 234 238 241 245 249 253 256 260 263 266 269 272 275 279 284 288 291 293 296 297 298 299 300 300 300
216 216 217 218 218 217 218 219 218 217 218 221 223 225 225 225 225 224 225 226 227 229 231 233 235 238 241 245 249 252 256 259 263 266 269 272 275 278 282 285 288 290 293 294 296 296 297 297 298
215 216 216 217 218 218 219 219 219 218 219 220 223 225 226 226 226 226 225 226 227 229 230 232 235 238 241 244 247 251 255 258 262 265 268 271 274 277 280 283 286 288 291 293 294 294 295 296 296
214 216 216 216 218 219 220 220 219 220 221 221 222 224 226 227 227 227 227 226 227 229 231 233 235 238 241 244 247 250 254 257 260 263 266 269 272 275 279 282 285 287 289 291 292 293 294 295 295
214 215 216 216 218 220 221 220 219 221 223 223 223 224 226 227 228 228 228 227 228 229 230 232 234 237 240 243 246 249 252 256 259 262 265 267 271 274 277 280 283 285 287 289 290 291 292 293 294
214 215 216 217 219 220 221 220 221 222 223 224 225 226 227 228 229 229 229 229 229 230 231 232 233 236 239 242 245 248 251 254 257 260 263 266 269 273 275 278 280 283 285 287 289 290 291 292 292
213 215 216 216 218 220 221 221 222 223 223 224 226 227 227 229 230 231 231 231 231 232 232 233 233 236 238 241 244 247 250 253 256 258 261 265 268 271 273 275 278 282 284 285 287 288 290 291 291
211 213 215 216 218 220 221 222 222 223 224 225 226 227 228 229 230 232 233 233 233 233 233 233 234 235 238 240 243 246 249 252 255 258 261 264 267 269 272 274 277 279 281 283 285 287 288 289 291
209 212 214 217 219 221 222 223 223 224 225 226 226 227 229 231 232 232 232 233 234 234 235 235 236 236 238 239 242 244 247 250 253 257 259 262 265 268 271 273 276 278 280 282 284 285 287 289 290
207 209 212 216 219 221 223 225 223 225 226 227 228 229 230 232 233 233 233 234 235 235 236 236 237 238 239 240 242 244 246 249 252 255 258 260 264 267 270 272 275 277 279 281 283 285 287 288 290
202 206 210 215 219 222 224 227 224 227 228 228 229 230 231 232 233 234 234 235 235 236 236 237 238 239 240 241 243 245 247 249 251 254 257 260 263 266 269 272 275 277 279 281 283 285 287 288 289
201 204 208 214 220 223 224 228 225 228 230 229 230 230 231 232 233 234 235 235 236 237 237 238 239 240 241 243 244 246 248 250 252 254 257 260 263 266 269 272 274 276 278 280 283 284 286 287 289
201 202 206 213 219 223 224 228 225 225 229 230 231 232 231 231 233 234 234 235 236 237 237 239 240 241 242 244 245 247 249 251 253 255 258 260 263 266 268 271 274 276 279 280 282 284 285 287 289
201 203 209 216 221 223 224 227 226 226 229 231 232 233 233 233 234 234 235 236 237 237 238 239 241 242 242 244 245 247 249 251 253 254 257 260 263 266 269 271 274 277 278 280 282 284 285 287 289
202 206 211 218 222 225 225 228 227 227 230 231 232 233 234 235 235 236 236 237 238 239 240 240 242 243 244 245 246 247 249 251 253 255 258 261 263 266 269 272 274 276 277 279 282 284 286 287 288
204 206 213 219 224 227 226 227 227 227 230 233 233 234 235 236 236 237 238 239 239 241 242 242 243 244 245 246 247 249 250 252 254 256 259 262 264 266 269 272 273 275 277 280 282 284 285 287 288
208 208 213 220 225 228 228 228 228 228 231 235 236 236 238 238 237 237 238 240 241 242 243 243 244 245 246 248 249 250 251 253 255 257 260 262 264 266 268 270 272 275 277 280 282 283 285 287 288
211 213 218 223 226 229 232 230 230 232 233 236 238 238 239 240 241 241 241 242 243 244 244 245 245 246 248 249 250 252 253 254 256 258 260 262 265 267 268 270 272 274 277 279 281 283 285 286 288
Height
5779 5786 5793 5799 5805 5810 5817 5825 5832 5837 5841 5844 5847 5851 5855 5860 5865 5871 5872 5874 5876 5878 5880 5881 5883 5884 5886 5887 5888 5889 5890 5891 5891 5892 5893 5893 5893 5894 5894 5894 5894 5893 5893 5893 5892 5892 5891 5890 5890
5771 5778 5785 5791 5797 5805 5814 5821 5827 5832 5836 5840 5843 5848 5852 5856 5861 5865 5868 5871 5873 5876 5878 5879 5881 5883 5884 5885 5887 5888 5889 5890 5890 5891 5891 5892 5892 5893 5893 5893 5893 5892 5892 5891 5891 5890 5890 5889 5888
5763 5770 5777 5783 5791 5801 5810 5817 5822 5826 5830 5835 5839 5844 5849 5853 5857 5861 5865 5868 5871 5873 5875 5877 5879 5881 5882 5884 5885 5886 5887 5888 5889 5890 5890 5891 5891 5891 5891 5891 5891 5891 5890 5890 5889 5889 5888 5887 5887
5755 5762 5768 5776 5786 5797 5805 5811 5815 5820 5825 5830 5835 5840 5845 5850 5854 5858 5861 5865 5868 5871 5873 5875 5877 5879 5881 5882 5883 5885 5886 5887 5888 5888 5889 5889 5890 5890 5890 5890 5890 5889 5889 5888 5888 5887 5886 5886 5885
5747 5753 5760 5769 5781 5791 5799 5804 5809 5814 5819 5825 5831 5836 5841 5846 5850 5854 5858 5861 5865 5868 5870 5873 5875 5877 5879 5880 5882 5883 5884 5885 5886 5887 5887 5888 5888 5888 5888 5888 5888 5888 5887 5887 5886 5885 5885 5884 5883
5739 5745 5753 5764 5776 5786 5792 5797 5803 5808 5814 5820 5826 5832 5837 5842 5846 5850 5854 5858 5862 5865 5867 5870 5872 5874 5876 5878 5880 5881 5882 5883 5884 5885 5885 5886 5886 5887 5887 5886 5886 5886 5885 5885 5884 5884 5883 5882 5881
5731 5739 5747 5759 5769 5778 5786 5791 5796 5802 5808 5814 5820 5827 5833 5838 5842 5846 5850 5854 5858 5861 5864 5867 5869 5872 5874 5876 5877 5879 5880 5881 5882 5883 5883 5884 5884 5884 5885 5884 5884 5884 5883 5883 5882 5882 5881 5880 5879
5723 5732 5740 5750 5761 5772 5780 5784 5790 5796 5802 5808 5815 5822 5828 5833 5838 5842 5846 5850 5854 5858 5861 5864 5866 5869 5871 5873 5875 5876 5878 5879 5880 5881 5881 5882 5882 5882 5882 5882 5882 5882 5881 5881 5880 5879 5879 5878 5877
5715 5724 5732 5745 5755 5766 5772 5777 5784 5789 5795 5801 5808 5816 5823 5828 5832 5837 5842 5846 5850 5854 5858 5861 5863 5866 5868 5870 5872 5874 5875 5876 5877 5878 5879 5879 5880 5880 5880 5879 5879 5879 5879 5878 5878 5877 5876 5875 5874
5707 5716 5730 5741 5749 5757 5762 5768 5775 5781 5788 5795 5802 5810 5817 5822 5828 5833 5838 5842 5846 5850 5853 5857 5859 5862 5864 5866 5868 5870 5872 5873 5874 5875 5876 5877 5877 5877 5877 5877 5877 5876 5876 5875 5875 5874 5873 5872 5871
5702 5713 5724 5732 5739 5746 5752 5759 5766 5773 5781 5789 5796 5804 5811 5817 5822 5828 5833 5837 5841 5845 5849 5852 5855 5858 5860 5863 5865 5867 5868 5870 5871 5872 5873 5873 5874 5874 5874 5874 5874 5873 5873 5872 5872 5871 5870 5869 5868
5697 5707 5716 5723 5730 5737 5743 5750 5758 5766 5776 5783 5789 5797 5804 5811 5817 5822 5828 5832 5836 5840 5844 5848 5851 5854 5856 5858 5861 5863 5864 5866 5867 5868 5869 5870 5870 5870 5871 5871 5870 5870 5870 5869 5868 5867 5866 5865 5864
5690 5700 5708 5715 5721 5728 5735 5742 5750 5760 5769 5775 5782 5790 5798 5804 5810 5816 5821 5826 5830 5835 5839 5843 5846 5849 5852 5854 5856 5858 5860 5862 5863 5864 5865 5866 5866 5867 5867 5867 5866 5866 5866 5865 5865 5864 5862 5861 5860
5684 5692 5700 5707 5714 5720 5728 5736 5743 5754 5762 5769 5776 5783 5791 5798 5804 5809 5815 5820 5825 5829 5833 5837 5841 5844 5847 5849 5851 5853 5855 5857 5858 5860 5861 5861 5862 5862 5862 5862 5862 5862 5862 5861 5860 5859 5858 5856 5855
5677 5685 5692 5699 5707 5714 5721 5728 5738 5749 5754 5761 5769 5777 5783 5790 5797 5803 5808 5813 5818 5822 5827 5831 5835 5838 5841 5844 5846 5848 5850 5852 5853 5855 5856 5856 5857 5857 5858 5858 5857 5857 5857 5856 5855 5854 5853 5851 5850
5669 5676 5685 5694 5701 5708 5715 5724 5735 5741 5746 5754 5761 5769 5776 5783 5790 5796 5801 5806 5811 5816 5820 5824 5828 5832 5835 5837 5840 5842 5844 5846 5848 5849 5850 5851 5852 5852 5852 5852 5852 5851 5851 5850 5849 5848 5847 5846 5844
5662 5670 5680 5689 5695 5702 5709 5720 5728 5732 5739 5747 5754 5761 5768 5775 5782 5788 5794 5799 5804 5808 5813 5817 5821 5825 5828 5831 5833 5836 5838 5840 5842 5843 5844 5845 5846 5846 5846 5846 5846 5845 5845 5844 5843 5842 5841 5839 5837
5659 5668 5676 5683 5690 5697 5704 5714 5720 5725 5732 5739 5746 5753 5760 5767 5774 5780 5786 5791 5796 5801 5805 5809 5813 5817 5820 5824 5827 5829 5831 5833 5835 5836 5837 5838 5839 5840 5840 5840 5839 5839 5839 5838 5837 5836 5834 5833 5831
5655 5663 5671 5678 5684 5691 5698 5706 5712 5718 5724 5732 5738 5745 5752 5760 5766 5772 5778 5783 5788 5793 5797 5802 5806 5809 5813 5816 5819 5822 5824 5826 5828 5829 5830 5832 5833 5833 5833 5833 5833 5832 5832 5831 5830 5828 5827 5825 5823
5650 5657 5665 5672 5679 5685 5692 5698 5704 5711 5718 5725 5731 5738 5745 5752 5758 5764 5770 5775 5780 5785 5789 5794 5798 5801 5805 5808 5811 5814 5817 5819 5821 5822 5823 5824 5825 5826 5826 5826 5826 5825 5825 5824 5822 5821 5819 5818 5816
5646 5654 5661 5667 5673 5679 5686 5692 5698 5705 5712 5718 5725 5732 5738 5745 5751 5756 5761 5766 5771 5776 5781 5785 5789 5793 5796 5800 5803 5806 5809 5811 5813 5815 5816 5816 5817 5818 5818 5818 5818 5818 5817 5816 5815 5813 5812 5810 5808
5643 5650 5656 5662 5668 5673 5680 5686 5694 5700 5705 5713 5720 5726 5732 5738 5743 5748 5753 5758 5763 5768 5772 5776 5780 5784 5787 5791 5794 5797 5800 5803 5805 5806 5807 5808 5809 5810 5810 5810 5810 5810 5809 5808 5807 5805 5803 5801 5799
5640 5646 5652 5658 5663 5669 5675 5681 5690 5694 5701 5709 5715 5720 5726 5730 5735 5740 5745 5750 5754 5759 5763 5767 5771 5775 5779 5782 5785 5789 5791 5794 5796 5798 5799 5800 5801 5801 5802 5802 5801 5801 5800 5799 5798 5796 5794 5792 5790
5637 5644 5649 5654 5659 5665 5672 5676 5685 5691 5697 5703 5708 5712 5717 5722 5726 5731 5736 5741 5746 5750 5754 5758 5762 5766 5769 5773 5776 5779 5782 5785 5787 5789 5790 5791 5792 5792 5793 5793 5792 5792 5791 5790 5788 5787 5785 5783 5781
5634 5641 5647 5651 5655 5662 5668 5671 5681 5687 5691 5695 5700 5704 5708 5713 5717 5722 5727 5732 5736 5741 5745 5749 5753 5757 5760 5763 5767 5770 5773 5775 5778 5780 5781 5782 5783 5783 5783 5783 5783 5782 5781 5780 5779 5777 5775 5773 5771
5632 5639 5645 5649 5653 5658 5663 5667 5677 5681 5684 5687 5692 5696 5700 5704 5709 5714 5718 5722 5727 5731 5735 5739 5743 5747 5750 5754 5757 5760 5763 5765 5768 5770 5771 5772 5773 5774 5774 5774 5773 5773 5772 5771 5769 5768 5766 5763 5761
5630 5635 5641 5646 5649 5654 5658 5664 5671 5675 5678 5681 5685 5688 5692 5697 5701 5705 5709 5713 5717 5721 5725 5729 5733 5737 5741 5744 5747 5750 5753 5755 5758 5760 5761 5762 5763 5764 5764 5764 5763 5763 5762 5761 5759 5758 5756 5754 5751
5628 5633 5638 5642 5646 5650 5655 5660 5666 5669 5672 5675 5678 5681 5685 5689 5693 5696 5700 5704 5708 5712 5716 5720 5724 5727 5731 5734 5737 5740 5743 5745 5747 5749 5751 5752 5753 5753 5754 5753 5753 5752 5752 5750 5749 5747 5746 5744 5742
5627 5631 5635 5639 5643 5647 5651 5658 5661 5663 5666 5669 5672 5675 5678 5681 5685 5688 5691 5695 5699 5702 5706 5710 5713 5717 5720 5724 5727 5729 5732 5735 5737 5739 5740 5741 5742 5743 5743 5743 5743 5742 5741 5740 5739 5738 5736 5734 5732
5624 5629 5633 5637 5640 5643 5647 5655 5656 5659 5661 5663 5666 5668 5671 5674 5677 5680 5683 5686 5690 5693 5697 5700 5703 5707 5710 5713 5716 5719 5721 5724 5726 5728 5729 5731 5732 5732 5733 5733 5732 5732 5731 5730 5729 5728 5726 5724 5722